Flag for Finland Weather past 2 weeks in Lahti, Finland

Now
55 °F

Sunny.


Feels Like: 55 °F
Forecast: 53 / 65 °F
Wind: 1 mph from Northwest

Location: Utti

Current Time: Aug 27, 2014 at 8:22:24 PM

Latest Report: Aug 27, 2014 at 7:50 PM


Visibility: 10 mi

Pressure: 29.45 "Hg

Humidity: 94%

Dew point: 54 °F

Location of LahtiLocation

Historic Weather in Lahti — Graph

°F

Lahti temperature yesterday

Maximum temperature yesterday: 63 °F (at 1:50 PM)
Minimum temperature yesterday: 54 °F (at 9:20 PM)
Average temperature yesterday: 58 °F

Past Weeks' High & Low Weather Summary

 TemperatureHumidityPressure
High73 °F (Aug 12, 5:20 PM)100% (Aug 13, 5:50 AM)29.86 "Hg (Aug 13, 5:50 AM)
Low48 °F (Aug 13, 5:50 AM)43% (Aug 17, 3:20 PM)29.33 "Hg (Aug 26, 5:50 AM)
Average59 °F81%29.63 "Hg
* Reported Aug 12 5:20 PM — Aug 27 5:50 PM, Lahti, Weather by CustomWeather, © 2014

Note: Actual official high and low records may vary slightly from our data, if they occured in-between our weather recording intervals... More about our weather records

Advertising

Lahti weather history for previous 24 hours

 ConditionsComfort  
Time TempWeatherWind HumidityBarometerVisibility
5:50 PM
Aug 27
57 °FSunny.3 mph94%29.42 "Hg10 mi
5:20 PM57 °FSunny.2 mph88%29.42 "Hg10 mi
4:50 PM57 °FSprinkles. Overcast.2 mph94%29.42 "HgN/A
4:20 PM59 °FSprinkles. Partly sunny.3 mph88%29.42 "HgN/A
3:50 PM59 °FScattered clouds.5 mph88%29.39 "HgN/A
3:20 PM57 °FPartly sunny.3 mph88%29.39 "HgN/A
2:50 PM57 °FSprinkles. Partly sunny.3 mph88%29.39 "HgN/A
2:20 PM55 °FSprinkles. Partly sunny.2 mph94%29.39 "HgN/A
1:50 PM55 °FSprinkles. Partly sunny.5 mph88%29.39 "HgN/A
1:20 PM57 °FSprinkles. Partly sunny.5 mph94%29.39 "HgN/A
12:50 PM55 °FSprinkles. Scattered clouds.6 mph100%29.36 "HgN/A
12:20 PM55 °FSprinkles. Scattered clouds.5 mph94%29.36 "HgN/A
11:50 AM59 °FScattered showers. Scattered clouds.5 mph72%29.36 "HgN/A
11:20 AM57 °FScattered clouds.2 mph82%29.36 "HgN/A
10:50 AM57 °FBroken clouds.5 mph88%29.36 "HgN/A
10:20 AM57 °FBroken clouds.6 mph88%29.36 "HgN/A
9:50 AM55 °FSprinkles. Broken clouds.6 mph100%29.36 "HgN/A
9:20 AM55 °FSprinkles. Partly sunny.5 mph94%29.36 "HgN/A
8:50 AM54 °FSprinkles. Broken clouds.6 mph100%29.36 "HgN/A
8:20 AM54 °FBroken clouds.7 mph100%29.36 "HgN/A
7:50 AM54 °FBroken clouds.3 mph100%29.33 "HgN/A
7:39 AM54 °FBroken clouds.2 mph100%29.33 "HgN/A
7:20 AM54 °FPartly sunny.3 mph100%29.33 "HgN/A
6:50 AM54 °FPartly cloudy.5 mph94%29.33 "HgN/A
6:20 AM52 °FPassing clouds.5 mph100%29.33 "HgN/A
5:50 AM52 °FFog.5 mph100%29.33 "HgN/A
5:20 AM52 °FPassing clouds.5 mph100%29.33 "HgN/A
4:50 AM52 °FPartly cloudy.5 mph100%29.33 "HgN/A
4:20 AM54 °FMostly cloudy.3 mph94%29.33 "HgN/A
3:50 AM54 °FPassing clouds.5 mph100%29.33 "HgN/A
2:50 AM54 °FLight rain. Low clouds.5 mph100%29.33 "HgN/A
2:20 AM54 °FLight rain. Low clouds.5 mph100%29.33 "HgN/A
1:50 AM54 °FLight rain. Low clouds.5 mph100%29.33 "HgN/A
1:20 AM54 °FLow clouds.3 mph100%29.33 "HgN/A
12:50 AM54 °FPassing clouds.5 mph100%29.33 "HgN/A
12:20 AM54 °FClear.3 mph94%29.33 "Hg10 mi
11:50 PM
Aug 26
54 °FClear.2 mph100%29.33 "Hg10 mi
11:20 PM54 °FClear.3 mph100%29.33 "Hg10 mi
10:50 PM54 °FClear.3 mph100%29.33 "Hg10 mi
10:20 PM54 °FClear.5 mph94%29.33 "Hg10 mi
9:50 PM54 °FClear.5 mph100%29.33 "Hg10 mi
9:20 PM54 °FBroken clouds.3 mph100%29.33 "HgN/A
8:50 PM55 °FBroken clouds.2 mph100%29.33 "HgN/A
8:20 PM57 °FBroken clouds.3 mph94%29.33 "HgN/A
Weather by CustomWeather, © 2014

See weather overviewHow to use our weather pages